Location: Navalespino
(40.5894°N, 4.2660°W)
Time: 08:24:47
(UTC+00:00)

Cosmos 2218 Rocket - Pass Details

Date: 18 April 2024
Orbit: 955 x 1006 km, 82.9° (Epoch: 19 May)

Event Time Altitude Azimuth Distance (km) Brightness Sun altitude
Rises 19:16:52 0° 355° (N) 3,741 7.4 -3.9°
Reaches altitude 10° 19:19:27 10° 359° (N) 2,784 6.7 -4.4°
Maximum altitude 19:25:48 64° 80° (E) 1,101 4.1 -5.5°
Drops below altitude 10° 19:32:03 10° 162° (SSE) 2,740 6.0 -6.6°
Sets 19:34:34 0° 165° (SSE) 3,678 6.7 -7.1°
